Wind_Speed
18 18 19 21 23 22 22 24 26 29 24 10 11 11 18 15 14 14 15 14 14 14 15 18 20 24 28 31 30 29 27 23 21 22 23 25 26 28 30 31 31 26 23 26
18 17 18 21 21 21 22 24 27 26 26 20 22 22 13 12 13 15 14 13 12 15 17 19 22 25 28 29 29 27 25 20 19 21 23 24 26 28 29 31 28 22 24 26
14 14 16 18 15 16 20 22 21 22 18 19 16 13 11 12 15 19 14 13 15 16 18 20 23 25 28 28 27 25 20 17 19 20 22 24 26 28 30 29 23 22 24 27
11 14 5 11 16 19 20 19 18 14 8 13 11 7 12 17 18 14 14 15 17 17 18 20 23 25 26 25 23 20 16 16 18 19 22 24 26 28 29 27 23 22 24 27
4 11 18 21 11 11 12 15 10 10 15 6 12 22 13 15 14 15 16 17 16 17 18 20 22 24 23 21 19 15 14 15 16 19 21 23 26 26 28 27 23 22 23 27
6 1 5 7 18 25 17 3 8 10 5 3 7 6 15 18 16 18 18 17 17 17 18 20 21 20 20 18 14 13 12 13 16 18 20 23 25 26 29 28 23 22 23 26
18 14 14 21 25 23 10 4 5 2 2 5 5 10 16 17 18 19 18 17 17 17 18 18 18 17 16 13 11 10 10 13 15 17 20 22 23 27 29 27 23 21 23 25
8 7 7 12 9 5 10 12 13 13 19 27 24 11 15 17 19 18 18 17 16 16 17 16 15 15 13 11 8 8 10 12 14 16 19 20 24 26 27 26 22 20 20 22
10 12 14 18 15 6 7 10 11 11 12 12 8 13 15 20 19 18 17 17 16 16 14 14 14 12 10 7 6 7 9 11 13 16 17 20 22 23 25 26 23 20 20 20
13 12 23 28 27 26 22 22 24 21 8 10 13 14 17 19 19 19 18 16 16 14 13 13 12 9 7 5 5 6 8 10 13 15 16 19 20 21 24 25 25 22 20 19
19 23 20 16 18 22 32 32 16 9 14 15 14 21 23 17 16 17 17 16 16 14 12 11 9 7 4 5 5 6 7 11 13 14 16 17 18 20 23 25 27 27 24 22
19 22 25 28 20 12 12 9 9 13 14 15 22 25 16 14 15 16 16 16 14 12 10 8 6 3 5 5 4 5 8 10 11 13 15 16 17 19 21 24 26 28 29 28
24 23 25 17 10 7 10 10 13 16 20 24 23 16 10 15 13 16 16 14 12 10 7 5 2 5 7 5 5 6 8 9 10 12 14 16 17 18 19 21 24 27 29 29
21 21 21 15 15 14 11 15 22 26 29 26 14 10 10 12 15 16 14 12 10 8 6 3 4 8 7 5 5 6 6 7 9 11 13 15 16 17 18 20 23 25 26 28
14 15 13 8 10 11 19 18 24 29 25 14 10 7 9 13 16 16 13 10 8 7 5 3 7 8 7 6 5 5 5 6 8 9 11 13 15 17 18 19 21 23 24 25
16 12 14 18 17 18 19 19 17 14 9 11 12 5 12 16 16 13 10 8 8 7 4 6 9 8 7 5 4 3 4 5 7 8 10 11 13 15 16 18 19 19 20 21
18 18 17 24 21 18 16 13 12 14 12 6 5 14 14 13 12 10 8 8 8 6 6 8 10 8 7 5 3 2 3 4 6 8 9 10 11 13 14 16 18 18 18 19
21 20 23 22 19 18 13 9 4 7 9 12 11 11 12 11 9 8 8 8 7 7 7 10 10 9 7 5 3 2 2 3 5 7 8 10 11 12 13 14 15 16 18 18
24 24 23 21 13 8 4 4 6 7 8 9 9 9 9 9 8 7 7 7 7 8 8 10 11 10 8 6 4 2 2 3 4 6 8 9 11 12 13 13 14 14 15 16
26 25 23 11 1 3 3 2 7 9 9 9 8 8 8 8 7 7 7 7 7 8 9 11 12 11 9 7 5 4 2 1 2 4 6 8 10 11 12 13 14 14 14 14
21 19 8 3 7 7 5 7 8 8 7 6 6 7 7 7 7 7 8 7 6 8 10 12 13 12 11 8 7 5 3 1 1 3 5 6 8 10 11 12 13 13 13 13
13 5 6 6 5 3 4 5 5 4 4 5 6 7 6 7 7 7 8 7 7 9 12 13 15 13 12 10 9 7 5 3 3 3 4 5 6 8 10 11 12 12 13 12
7 7 6 4 3 3 3 3 3 4 5 6 7 6 7 7 8 8 8 7 8 10 12 14 14 15 14 12 10 9 7 6 5 5 4 5 6 7 9 10 12 12 12 12
8 5 5 5 4 3 2 3 4 5 6 7 7 8 8 8 8 8 7 6 6 9 11 13 15 15 15 14 13 11 10 9 8 7 6 5 6 7 9 10 11 12 13 13
7 7 6 5 4 3 4 5 6 8 9 10 10 9 9 9 8 8 6 5 6 7 9 11 13 15 15 15 14 13 12 10 10 9 9 8 7 7 8 9 10 11 12 13
8 7 5 4 4 5 7 9 10 11 11 11 11 10 10 10 9 9 8 8 7 6 8 9 11 13 14 15 15 15 14 14 13 12 12 11 11 10 10 10 9 10 10 11
8 6 5 6 7 8 9 10 11 11 11 11 11 11 10 10 10 9 10 10 9 8 8 10 11 12 14 15 16 16 15 16 15 15 15 14 14 14 13 12 12 11 11 10
Wind_Direction
271 277 286 284 280 278 271 265 264 278 281 317 227 258 294 303 309 309 299 287 282 283 285 288 296 306 314 322 327 329 331 332 343 351 350 349 348 348 348 347 346 348 353 351
279 278 282 284 284 280 275 273 272 273 274 255 266 281 289 305 316 316 303 293 293 291 285 292 300 309 318 325 327 331 334 340 350 353 350 350 352 351 349 350 350 357 356 354
286 289 286 286 287 289 286 275 271 278 275 260 267 280 300 318 326 316 300 301 298 289 290 295 306 313 322 326 329 334 338 347 353 352 352 354 354 354 353 352 357 359 358 356
286 294 264 294 304 294 297 297 270 259 248 249 279 316 330 330 307 297 301 301 295 290 294 300 308 316 324 327 333 335 342 354 354 354 356 356 357 358 353 358 1 1 360 359
273 285 291 294 352 332 322 303 280 241 252 265 310 317 321 299 291 301 300 299 295 296 299 304 311 320 325 330 334 337 353 358 355 358 358 358 2 356 358 4 3 2 2 4
267 245 275 356 324 332 320 292 319 259 282 298 1 8 316 309 298 298 299 301 300 300 302 308 315 322 326 331 335 351 2 356 360 360 2 5 0 1 5 5 5 4 6 7
276 266 273 292 289 294 289 308 49 68 332 334 289 325 314 297 299 298 303 302 299 304 307 312 317 323 327 334 349 8 358 2 3 5 8 6 3 9 7 6 7 6 7 9
296 290 277 289 317 292 260 254 267 282 287 282 281 297 296 296 296 300 305 303 302 305 309 313 319 323 332 346 7 9 6 7 8 11 12 6 11 13 10 10 9 9 9 10
291 276 309 292 274 253 241 244 258 277 279 294 270 300 295 297 300 305 310 306 302 305 307 315 319 329 345 4 21 16 14 12 14 19 13 12 18 15 15 16 14 12 13 13
295 292 272 278 272 256 267 264 260 280 286 267 296 293 292 292 305 316 307 301 302 302 307 316 323 343 357 32 42 27 20 21 23 19 16 19 21 19 22 23 25 22 19 17
290 309 311 310 306 290 266 269 265 275 271 279 280 271 294 286 296 306 297 300 297 299 310 319 332 353 36 71 56 37 32 32 27 20 22 24 22 23 26 27 29 30 28 28
293 292 303 304 292 272 268 272 255 265 263 281 269 278 265 282 310 300 295 292 294 298 314 323 341 37 96 94 71 55 46 39 31 26 27 27 25 26 28 30 32 32 32 31
298 300 290 290 271 290 273 263 262 250 251 252 271 268 286 316 299 290 289 290 294 301 315 322 10 122 120 106 90 68 56 44 35 32 32 30 28 29 31 33 34 35 34 33
307 309 287 269 270 272 274 262 255 251 254 271 267 294 325 300 292 288 285 286 290 307 302 300 148 136 129 126 100 78 56 40 31 32 33 30 30 32 32 33 33 34 35 36
300 298 283 258 253 279 306 287 272 268 271 255 280 307 291 295 291 280 281 285 297 293 286 200 152 145 149 133 116 87 50 29 27 29 30 29 29 33 33 34 33 34 34 35
277 279 262 244 251 307 300 286 276 263 247 278 281 301 291 284 273 275 283 288 288 277 240 176 157 162 156 141 123 80 50 28 29 28 28 29 27 32 33 36 35 34 33 34
257 269 260 273 288 309 308 277 254 259 288 279 297 280 271 269 276 279 279 281 273 250 206 177 172 171 167 162 148 94 53 34 35 34 29 31 28 31 31 34 35 34 34 34
240 265 276 276 296 307 295 274 265 274 284 282 276 270 273 277 277 276 272 270 259 233 203 184 180 183 182 181 178 133 82 53 44 41 35 33 31 32 31 31 33 33 34 33
248 271 269 272 290 283 243 241 282 287 280 278 283 280 274 273 270 269 273 277 253 228 203 194 193 192 195 195 183 171 115 73 54 45 40 37 33 32 32 30 32 30 31 32
263 271 279 262 184 205 192 237 262 278 284 281 275 273 272 267 269 276 284 283 258 232 213 205 202 200 204 201 193 185 164 87 46 35 33 35 32 28 31 30 31 29 27 28
274 285 258 191 217 233 255 274 280 278 275 276 273 272 269 268 274 288 299 295 263 233 221 214 209 208 207 208 204 197 194 217 334 0 10 21 24 22 23 25 27 28 25 25
270 233 175 212 227 246 271 273 271 270 272 275 275 269 272 277 283 297 309 297 269 244 230 219 214 212 211 216 215 209 215 239 275 314 341 360 14 18 17 18 20 22 21 21
169 180 207 214 215 216 223 234 256 273 283 285 285 284 283 288 296 304 300 286 258 239 227 223 217 214 217 218 223 225 228 241 260 281 310 333 350 2 10 12 14 15 15 13
193 191 183 179 174 180 214 259 275 285 293 300 301 297 293 291 286 287 287 275 255 242 233 224 219 219 220 223 227 234 240 249 259 272 282 304 326 341 350 358 3 7 9 8
182 171 170 175 192 228 266 285 291 290 288 288 288 289 289 284 277 275 271 263 254 237 226 225 224 224 225 228 233 239 244 249 256 261 269 278 292 310 325 337 346 354 359 3
177 178 192 218 250 275 281 283 283 286 287 288 290 291 289 285 277 267 258 253 251 242 234 230 230 231 233 237 241 244 249 250 253 257 261 268 277 288 298 309 320 331 342 349
192 207 233 254 263 269 280 287 289 288 288 288 288 289 289 287 281 272 263 254 250 250 250 249 250 250 248 245 247 249 250 254 254 258 262 265 270 277 285 292 298 305 315 326
Height
3129 3129 3128 3126 3125 3125 3124 3123 3122 3117 3117 3116 3112 3111 3109 3109 3108 3106 3104 3101 3099 3098 3097 3095 3093 3091 3086 3082 3077 3072 3067 3064 3059 3054 3050 3044 3039 3033 3027 3020 3014 3008 3003 2997
3126 3126 3125 3122 3122 3121 3120 3118 3117 3115 3113 3109 3109 3109 3107 3106 3104 3102 3101 3100 3099 3097 3095 3093 3090 3087 3084 3079 3074 3070 3066 3062 3057 3052 3048 3043 3039 3032 3026 3019 3013 3007 3003 2997
3123 3123 3121 3119 3118 3117 3115 3113 3113 3111 3110 3106 3105 3105 3105 3104 3102 3101 3099 3098 3096 3094 3092 3090 3088 3084 3080 3077 3073 3069 3065 3061 3056 3051 3047 3043 3038 3032 3026 3020 3013 3008 3003 2998
3122 3121 3119 3117 3115 3112 3110 3109 3109 3109 3106 3103 3104 3104 3103 3103 3101 3099 3098 3096 3094 3091 3089 3087 3085 3083 3077 3074 3070 3068 3063 3059 3055 3051 3047 3041 3037 3031 3027 3019 3013 3009 3004 2999
3122 3120 3116 3115 3111 3110 3108 3106 3106 3107 3103 3103 3102 3100 3101 3099 3099 3098 3096 3093 3091 3089 3086 3085 3082 3079 3076 3072 3069 3065 3061 3058 3054 3051 3046 3042 3036 3033 3026 3019 3014 3010 3005 2999
3119 3118 3116 3113 3109 3108 3106 3106 3102 3103 3103 3103 3101 3102 3102 3100 3099 3096 3094 3091 3088 3086 3085 3082 3080 3076 3073 3070 3067 3063 3060 3057 3055 3051 3047 3041 3038 3033 3025 3019 3015 3011 3006 3000
3115 3113 3111 3111 3108 3107 3109 3109 3101 3101 3101 3101 3100 3100 3099 3099 3097 3094 3091 3089 3087 3084 3081 3079 3077 3073 3070 3068 3065 3062 3060 3058 3054 3051 3046 3043 3040 3033 3027 3021 3016 3012 3007 3001
3115 3113 3111 3105 3106 3107 3105 3101 3100 3099 3099 3096 3095 3098 3099 3097 3094 3092 3089 3086 3085 3083 3080 3077 3073 3070 3068 3066 3063 3061 3060 3058 3055 3051 3047 3045 3039 3034 3029 3023 3018 3014 3009 3004
3116 3114 3109 3104 3104 3103 3101 3098 3097 3094 3094 3096 3095 3096 3095 3095 3092 3090 3087 3084 3083 3081 3078 3074 3071 3068 3066 3064 3062 3062 3060 3059 3056 3052 3050 3046 3041 3037 3032 3026 3020 3015 3011 3006
3109 3108 3102 3100 3100 3098 3096 3093 3091 3089 3092 3095 3094 3092 3091 3091 3089 3087 3085 3082 3081 3079 3076 3072 3070 3067 3065 3063 3063 3062 3061 3059 3056 3054 3052 3047 3044 3040 3035 3030 3024 3018 3013 3009
3102 3100 3098 3097 3092 3090 3089 3087 3086 3089 3091 3090 3090 3088 3087 3087 3085 3084 3082 3080 3078 3076 3072 3071 3069 3066 3064 3063 3063 3063 3061 3059 3057 3056 3053 3049 3046 3042 3038 3033 3027 3022 3017 3012
3099 3096 3094 3089 3086 3084 3082 3083 3084 3087 3088 3086 3085 3084 3084 3082 3081 3081 3080 3078 3076 3074 3070 3068 3067 3065 3064 3064 3064 3064 3062 3061 3059 3057 3054 3052 3049 3045 3041 3036 3031 3026 3020 3015
3094 3090 3088 3085 3084 3083 3081 3081 3082 3084 3082 3080 3080 3080 3080 3079 3079 3078 3077 3075 3074 3072 3069 3067 3066 3065 3065 3065 3065 3064 3063 3063 3061 3059 3056 3054 3051 3048 3044 3040 3035 3030 3025 3020
3088 3085 3082 3081 3081 3081 3082 3081 3080 3079 3077 3076 3076 3077 3076 3077 3077 3076 3075 3073 3072 3069 3068 3066 3065 3064 3065 3066 3066 3065 3066 3065 3063 3061 3058 3056 3053 3050 3046 3042 3038 3035 3031 3026
3084 3081 3079 3079 3080 3079 3077 3076 3075 3073 3072 3072 3073 3073 3075 3075 3074 3073 3072 3071 3069 3068 3067 3065 3064 3065 3066 3066 3067 3067 3067 3067 3065 3062 3060 3058 3056 3052 3049 3045 3042 3038 3035 3031
3079 3078 3077 3076 3076 3076 3074 3072 3070 3068 3069 3070 3071 3072 3072 3071 3071 3071 3069 3068 3068 3066 3066 3065 3064 3066 3067 3067 3068 3068 3068 3068 3066 3064 3062 3060 3058 3055 3052 3048 3045 3042 3039 3036
3075 3075 3074 3074 3074 3072 3070 3068 3069 3069 3069 3070 3069 3070 3069 3069 3068 3067 3067 3067 3066 3065 3065 3064 3065 3066 3067 3069 3069 3069 3068 3068 3067 3065 3064 3062 3059 3057 3054 3051 3048 3046 3043 3040
3071 3071 3071 3070 3070 3068 3066 3067 3068 3069 3067 3068 3066 3067 3067 3067 3066 3065 3065 3065 3064 3064 3064 3064 3065 3067 3068 3069 3070 3069 3069 3069 3068 3067 3065 3063 3061 3059 3056 3054 3051 3049 3046 3043
3067 3067 3067 3066 3067 3066 3066 3067 3067 3066 3066 3065 3065 3065 3066 3065 3065 3064 3064 3064 3063 3063 3063 3063 3065 3067 3068 3070 3070 3070 3070 3070 3069 3068 3067 3065 3063 3061 3058 3056 3053 3051 3049 3046
3063 3063 3063 3063 3064 3065 3065 3064 3064 3064 3064 3064 3064 3064 3064 3064 3064 3063 3063 3062 3062 3061 3061 3063 3065 3066 3068 3069 3070 3071 3071 3071 3070 3069 3068 3066 3064 3062 3060 3058 3055 3053 3051 3049
3059 3059 3059 3061 3063 3063 3063 3063 3063 3063 3063 3063 3063 3063 3063 3064 3063 3062 3061 3060 3059 3059 3060 3062 3064 3066 3067 3068 3070 3070 3071 3071 3071 3070 3069 3067 3065 3064 3062 3059 3057 3055 3053 3051
3057 3057 3058 3060 3060 3060 3061 3061 3062 3062 3062 3062 3062 3063 3062 3061 3061 3060 3059 3058 3057 3058 3059 3061 3063 3064 3066 3068 3069 3069 3070 3071 3071 3071 3070 3068 3066 3065 3063 3061 3059 3056 3054 3053
3055 3056 3057 3058 3059 3060 3061 3061 3062 3062 3062 3062 3062 3061 3060 3059 3058 3057 3057 3056 3056 3057 3058 3059 3061 3062 3064 3066 3068 3068 3069 3070 3070 3070 3070 3069 3068 3066 3064 3062 3060 3058 3056 3054
3055 3056 3057 3058 3059 3060 3061 3061 3062 3062 3061 3060 3060 3059 3058 3057 3057 3056 3056 3055 3055 3055 3056 3058 3059 3061 3063 3064 3065 3066 3067 3068 3069 3069 3069 3068 3068 3066 3065 3063 3061 3059 3057 3055
3054 3055 3057 3058 3059 3060 3060 3060 3060 3059 3059 3058 3058 3057 3056 3056 3055 3054 3054 3054 3054 3054 3055 3056 3057 3059 3061 3062 3063 3064 3065 3066 3067 3067 3067 3067 3066 3065 3064 3063 3061 3059 3058 3056
3054 3055 3057 3058 3058 3058 3058 3058 3058 3058 3057 3056 3055 3055 3054 3053 3053 3052 3052 3053 3053 3053 3054 3054 3055 3057 3058 3059 3060 3061 3062 3063 3063 3064 3064 3064 3064 3064 3063 3062 3060 3059 3057 3056
3054 3055 3056 3056 3057 3056 3056 3056 3055 3054 3053 3053 3052 3051 3051 3050 3050 3050 3050 3050 3051 3052 3052 3053 3053 3054 3055 3055 3056 3057 3058 3059 3059 3060 3061 3061 3061 3061 3060 3060 3058 3057 3056 3055